Regional Weather Roundup
Issued by NWS

Home | Current Version | Previous Version | Graphics & Text | Print | Product List | Glossary On
Versions: 1 2 3 4 5 6 7 8 9 10 11 12 13 14 15 16 17 18 19 20 21 22 23 24 25 26 27 28 29 30 31 32 33 34 35 36 37 38 39 40 41 42 43 44 45 46 47 48 49 50
000
ASUS43 KOAX 261902
RWRNE

WEATHER ROUNDUP FOR NEBRASKA
NATIONAL WEATHER SERVICE OMAHA NE
200 PM CDT THU APR 26 2018

NOTES: SATELLITE DATA IS BEING USED TO AUGMENT CLOUD COVER ABOVE
       12000 FEET.
       "FAIR" INDICATES FEW OR NO CLOUDS BELOW 12,000 FEET WITH NO
       SIGNIFICANT WEATHER AND/OR OBSTRUCTIONS TO VISIBILITY.


NEZ001>004-019>022-054>056-262000-
NEBRASKA PANHANDLE

CITY           SKY/WX    TMP DP  RH WIND       PRES   REMARKS
SCOTTSBLUFF    PTSUNNY   59  29  31 NW18G29   30.25S
ALLIANCE       SUNNY     59  29  31 N18G26    30.22F
CHADRON        PTSUNNY   59  30  33 N8        30.23F
GORDON         FAIR      58  27  30 N16G25    30.21S
KIMBALL        CLOUDY    53  25  34 N17G25    30.26S
SIDNEY         PTSUNNY   59  29  31 N20G26    30.24S
$$

NEZ057>060-069>072-079>082-262000-
SOUTHWEST NEBRASKA

CITY           SKY/WX    TMP DP  RH WIND       PRES   REMARKS
NORTH PLATTE   SUNNY     63  30  28 N23G35    30.15R
IMPERIAL       SUNNY     63  31  30 NW26G43   30.18S
LEXINGTON      MOSUNNY   63  33  32 N25G33    30.11R
MCCOOK         SUNNY     64  34  32 N31G45    30.10R
OGALLALA       SUNNY     62  29  29 N23G32    30.20S
$$

NEZ005>010-023>029-035>040-094-262000-
NORTH CENTRAL NEBRASKA

CITY           SKY/WX    TMP DP  RH WIND       PRES   REMARKS
VALENTINE      SUNNY     62  25  24 N24G36    30.16F
AINSWORTH      SUNNY     58  29  33 N23G31    30.16F
BROKEN BOW     SUNNY     61  29  29 N23G38    30.12S
O`NEILL        SUNNY     61  28  28 N29G36    30.11F
ORD            SUNNY     61  29  29 N30G39    30.09S
THEDFORD       SUNNY     60  29  30 N24G30    30.17S
$$

NEZ041-046>049-061>064-073>077-083>087-262000-
SOUTH CENTRAL NEBRASKA

CITY           SKY/WX    TMP DP  RH WIND       PRES   REMARKS
GRAND ISLAND   CLOUDY    63  38  39 N29G41    30.05S
AURORA         CLOUDY    62  39  41 N24G32    30.02F
HASTINGS       CLOUDY    63  39  41 N28G40    30.04S
HEBRON         SUNNY     68  42  39 NW13G21   29.99F
HOLDREGE       CLOUDY    62  39  42 N26G39    30.08S
KEARNEY        MOSUNNY   61  35  37 N33G39    30.06S
YORK             N/A     63  41  45 N15G23    30.02R
$$

NEZ011>018-030>034-042>045-262000-
NORTHEAST NEBRASKA

CITY           SKY/WX    TMP DP  RH WIND       PRES   REMARKS
NORFOLK        SUNNY     63  35  35 N26G45    30.01R
ALBION         SUNNY     62  33  33 N23G32    30.06R
BLAIR          CLOUDY    64  41  42 NW12      29.96S
COLUMBUS       PTSUNNY   64  40  41 N25G33    30.01S
FREMONT        CLOUDY    66  40  38 NW16G25   29.99S
TEKAMAH        MOSUNNY   66  38  35 N14G24    29.96S
WAYNE          SUNNY     64  36  36 N25G36    30.01R
$$

NEZ050>053-065>068-078-088>093-262000-
SOUTHEAST NEBRASKA

CITY           SKY/WX    TMP DP  RH WIND       PRES   REMARKS
LINCOLN        SUNNY     69  40  34 NW14G25   29.98F
OMAHA EPPLEY   CLOUDY    68  41  37 W20G28    29.95F
BEATRICE       SUNNY     69  45  42 W14G21    29.98F
FALLS CITY     CLOUDY    64  43  46 NW13      29.98F
NEBRASKA CITY  SUNNY     66  41  40 W7G22     29.97F
PLATTSMOUTH    MOSUNNY   67  39  36 W15G21    29.96F
$$

NEZ044-045-051>053-067-262000-
OMAHA AREA

CITY           SKY/WX    TMP DP  RH WIND       PRES   REMARKS
OMAHA EPPLEY   CLOUDY    68  41  37 W20G28    29.95F
BLAIR          CLOUDY    64  41  42 NW12      29.96S
FREMONT        CLOUDY    66  40  38 NW16G25   29.99S
MILLARD        MOSUNNY   65  43  44 NW15G22   29.96S
OFFUTT AFB     PTSUNNY   67  40  38 SW12G20   29.94F
PLATTSMOUTH    MOSUNNY   67  39  36 W15G21    29.96F
WAHOO          FAIR      64  36  34 NW18      29.98S
$$



USA.gov is the U.S. government's official web portal to all federal, state and local government web resources and services.